Date String (YYYY-MM-DD hh:mm:ss) UTC,Instrument flags,Ambient pressure (hPa),Sample flow (lpm),Bypass flow (lpm),Sample temperature (°C),Ambient temperature (°C),ASC tube jacket temperature (°C),LED temperature (°C),Box temperature (°C),Sample RH (%),Mass concentration (μg/m³),Mass concentration (μg/m³)
DateTimeUTC,F1_M11,P_M11,Q1_M11,Q2_M11,T1_M11,T2_M11,T3_M11,T4_M11,T5_M11,U1_M11,X0_M11,X2_M11
2021-08-18 13:00:00,,0823.7,5.00,0.00,30.0,29.1,00.0,39.1,31.8,25.5,0024.77,0017.01
2021-08-18 13:01:00,,0823.7,5.01,0.00,30.0,29.2,00.0,39.1,31.8,25.1,0024.60,0017.10
2021-08-18 13:02:00,,0823.7,5.00,0.00,30.0,29.2,00.0,39.1,31.8,23.7,0024.89,0017.15
2021-08-18 13:03:00,,0823.7,5.00,0.00,30.1,29.2,00.0,39.1,31.9,21.9,0025.34,0017.20
2021-08-18 13:04:00,,0823.7,4.99,0.00,30.1,29.3,00.0,39.1,31.9,20.7,0025.44,0017.26
2021-08-18 13:05:00,,0823.7,5.00,0.00,30.1,29.0,00.0,39.2,31.9,20.1,0025.23,0017.28
2021-08-18 13:06:00,,0823.6,5.01,0.00,30.0,27.2,00.0,39.1,31.4,20.1,0025.42,0017.31
2021-08-18 13:07:00,,0823.7,5.00,0.00,29.9,26.6,00.0,39.1,31.2,20.4,0025.29,0017.29
2021-08-18 13:08:00,,0823.6,5.01,0.00,29.8,26.9,00.0,39.1,31.2,20.6,0025.57,0017.36
2021-08-18 13:09:00,,0823.7,5.00,0.00,29.7,27.2,00.0,39.0,31.3,20.7,0025.77,0017.36
2021-08-18 13:10:00,,0823.7,4.99,0.00,29.7,27.6,00.0,39.0,31.3,20.6,0026.41,0017.39
2021-08-18 13:11:00,,0823.7,5.01,0.00,29.7,27.8,00.0,39.0,31.4,20.7,0026.08,0017.38
2021-08-18 13:12:00,,0823.7,4.99,0.00,29.7,28.1,00.0,39.0,31.4,21.1,0026.04,0017.35
2021-08-18 13:13:00,,0823.7,4.99,0.00,29.8,28.2,00.0,39.0,31.5,20.9,0025.97,0017.39
2021-08-18 13:14:00,,0823.8,5.01,0.00,29.8,28.4,00.0,39.0,31.5,20.5,0025.89,0017.36
2021-08-18 13:15:00,,0823.8,5.00,0.00,29.8,28.5,00.0,38.9,31.5,20.3,0026.38,0017.36
2021-08-18 13:16:00,,0823.8,5.00,0.00,29.8,28.6,00.0,39.0,31.6,20.1,0026.87,0017.37
2021-08-18 13:17:00,,0823.8,5.00,0.00,29.9,28.7,00.0,39.0,31.7,20.1,0027.40,0017.41
2021-08-18 13:18:00,,0823.8,5.00,0.00,29.9,28.8,00.0,39.0,31.7,20.0,0027.67,0017.48
2021-08-18 13:19:00,,0823.8,5.01,0.00,29.9,28.8,00.0,39.0,31.7,20.0,0027.43,0017.46
2021-08-18 13:20:00,,0823.8,5.00,0.00,29.9,28.9,00.0,39.0,31.7,19.9,0026.94,0017.42
2021-08-18 13:21:00,,0823.8,5.00,0.00,29.9,28.9,00.0,39.0,31.7,20.0,0025.72,0017.37
2021-08-18 13:22:00,,0823.8,5.01,0.00,29.9,29.0,00.0,39.0,31.7,21.5,0025.55,0017.34
2021-08-18 13:23:00,,0823.8,4.99,0.00,29.9,29.0,00.0,39.0,31.8,22.4,0025.90,0017.39
2021-08-18 13:24:00,,0823.8,5.00,0.00,29.9,29.0,00.0,39.0,31.7,22.3,0025.69,0017.35
2021-08-18 13:25:00,,0823.8,5.01,0.00,30.0,29.0,00.0,39.0,31.7,21.6,0025.43,0017.36
2021-08-18 13:26:00,,0823.8,4.99,0.00,30.0,29.1,00.0,39.1,31.8,21.5,0024.74,0017.35
2021-08-18 13:27:00,,0823.8,5.01,0.00,30.0,29.1,00.0,39.1,31.8,21.9,0024.98,0017.31
2021-08-18 13:28:00,,0823.8,5.00,0.00,30.0,29.1,00.0,39.1,31.8,21.7,0024.14,0017.24
2021-08-18 13:29:00,,0823.8,5.01,0.00,30.0,29.2,00.0,39.1,31.8,21.1,0023.80,0017.20
2021-08-18 13:30:00,,0823.8,4.99,0.00,30.0,29.2,00.0,39.1,31.9,20.3,0023.60,0017.19
2021-08-18 13:31:00,,0823.7,5.00,0.00,30.1,29.2,00.0,39.1,31.9,20.3,0023.64,0017.18
2021-08-18 13:32:00,,0823.8,5.01,0.00,30.1,29.3,00.0,39.1,31.9,20.4,0023.87,0017.21
2021-08-18 13:33:00,,0823.8,4.99,0.00,30.1,29.3,00.0,39.2,31.9,20.3,0023.73,0017.26
2021-08-18 13:34:00,,0823.7,4.99,0.00,30.1,29.3,00.0,39.2,31.9,20.4,0023.55,0017.26
2021-08-18 13:35:00,,0823.8,5.01,0.00,30.1,28.0,00.0,39.2,31.6,20.4,0023.63,0017.27
2021-08-18 13:36:00,,0823.8,4.99,0.00,29.9,26.2,00.0,39.1,31.1,20.5,0024.12,0017.30
2021-08-18 13:37:00,,0823.8,5.02,0.00,29.8,25.9,00.0,39.1,31.0,20.4,0025.12,0017.31
2021-08-18 13:38:00,,0823.8,5.00,0.00,29.7,26.3,00.0,39.0,31.1,20.3,0024.54,0017.28
2021-08-18 13:39:00,,0823.8,5.00,0.00,29.7,26.8,00.0,39.0,31.1,20.8,0024.73,0017.30
2021-08-18 13:40:00,,0823.8,5.00,0.00,29.6,27.2,00.0,38.9,31.2,21.2,0025.08,0017.31
2021-08-18 13:41:00,,0823.8,4.99,0.00,29.6,27.5,00.0,38.9,31.3,21.2,0026.30,0017.31
2021-08-18 13:42:00,,0824.0,5.01,0.00,29.6,27.8,00.0,38.9,31.3,21.1,0027.28,0017.33
2021-08-18 13:43:00,,0823.9,4.99,0.00,29.7,28.0,00.0,38.9,31.4,21.0,0027.44,0017.34
2021-08-18 13:44:00,,0823.9,5.00,0.00,29.7,28.2,00.0,38.9,31.4,21.3,0028.05,0017.32
2021-08-18 13:45:00,,0824.0,5.01,0.00,29.7,28.4,00.0,38.9,31.5,21.4,0028.38,0017.29
2021-08-18 13:46:00,,0824.0,4.99,0.00,29.7,28.5,00.0,38.9,31.5,20.9,0028.40,0017.25
2021-08-18 13:47:00,,0823.9,5.01,0.00,29.8,28.6,00.0,38.9,31.5,20.8,0027.88,0017.21
2021-08-18 13:48:00,,0823.9,5.00,0.00,29.8,28.7,00.0,38.9,31.6,21.0,0027.20,0017.19
2021-08-18 13:49:00,,0823.9,5.00,0.00,29.8,28.8,00.0,38.9,31.7,21.5,0027.09,0017.19
2021-08-18 13:50:00,,0824.0,5.00,0.00,29.8,28.8,00.0,38.9,31.7,21.6,0026.84,0017.17
2021-08-18 13:51:00,,0824.0,4.99,0.00,29.9,28.9,00.0,38.9,31.7,22.1,0026.57,0017.14
2021-08-18 13:52:00,,0824.0,5.01,0.00,29.9,29.0,00.0,38.9,31.7,21.0,0026.04,0017.13
2021-08-18 13:53:00,,0824.1,5.00,0.00,29.9,29.0,00.0,39.0,31.8,21.3,0025.04,0017.06
2021-08-18 13:54:00,,0824.0,4.99,0.00,30.0,29.1,00.0,39.0,31.8,21.5,0024.71,0017.04
2021-08-18 13:55:00,,0824.1,5.00,0.00,30.0,29.1,00.0,39.0,31.8,22.8,0023.95,0017.01
2021-08-18 13:56:00,,0824.1,5.00,0.00,30.0,29.1,00.0,39.0,31.9,23.8,0023.59,0016.99
2021-08-18 13:57:00,,0824.1,5.00,0.00,30.1,29.2,00.0,39.0,31.9,23.1,0023.43,0017.02
2021-08-18 13:58:00,,0824.1,4.99,0.00,30.1,29.2,00.0,39.1,31.9,22.5,0023.59,0017.02
2021-08-18 13:59:00,,0824.1,5.00,0.00,30.1,29.3,00.0,39.1,32.0,21.9,0023.96,0017.01
